Home > Weather > Macon > Past weeks

Flag for USA Past Weather in Macon, Georgia, USA — Yesterday and Last 2 Weeks

Now
75 °F

Clear.


Feels Like: 75 °F
Forecast: 73 / 87 °F
Wind: 6 mph from East

Location: Middle Georgia Regional Airport

Current Time: Jun 28, 2016 at 4:04:27 AM

Latest Report: Jun 28, 2016 at 2:53 AM


Visibility: 10 mi

Pressure: 29.95 "Hg

Humidity: 85%

Dew Point: 70 °F

Location of MaconLocation

Past Weather in Macon — Graph

°F

Macon Temperature Yesterday

Maximum temperature yesterday: 95 °F (at 5:53 PM)
Minimum temperature yesterday: 68 °F (at 3:53 AM)
Average temperature yesterday: 82 °F

High & Low Weather Summary for the Past Weeks

 TemperatureHumidityPressure
High103 °F (Jun 25, 3:53 PM)96% (Jun 27, 3:53 AM)30.31 "Hg (Jun 27, 3:53 AM)
Low60 °F (Jun 20, 5:53 AM)23% (Jun 23, 5:53 PM)29.75 "Hg (Jun 17, 5:00 PM)
Average82 °F60%30.03 "Hg
* Reported Jun 13 2:53 AM — Jun 28 2:53 AM, Macon, Weather by CustomWeather, © 2016

Note: Actual official high and low records may vary slightly from our data, if they occured in-between our weather recording intervals... More about our weather records

Advertising

Macon Weather History for the Previous 24 Hours

Scroll right to see more
 ConditionsComfort  
Time TempWeatherWind HumidityBarometerVisibility
2:53 AM
Tue, Jun 28
75 °FClear.6 mph85%29.95 "Hg10 mi
1:53 AM77 °FClear.8 mph79%29.97 "Hg10 mi
12:53 AM80 °FPassing clouds.6 mph71%29.98 "Hg10 mi
11:53 PM
Mon, Jun 27
81 °FClear.5 mph67%29.98 "Hg10 mi
10:53 PM82 °FClear.3 mph65%29.99 "Hg10 mi
9:53 PM83 °FClear.3 mph61%29.97 "Hg10 mi
8:53 PM87 °FSunny.5 mph51%29.96 "Hg10 mi
7:53 PM92 °FSunny.9 mph44%29.94 "Hg10 mi
6:53 PM94 °FSunny.7 mph40%29.94 "Hg10 mi
5:53 PM95 °FPartly sunny.13 mph37%29.94 "Hg10 mi
4:53 PM94 °FScattered clouds.3 mph38%29.95 "Hg10 mi
3:53 PM92 °FPassing clouds.5 mph41%29.98 "Hg10 mi
2:53 PM93 °FSunny.No wind41%30.01 "Hg10 mi
1:53 PM93 °FSunny.12 mph42%30.04 "Hg10 mi
12:53 PM91 °FSunny.7 mph47%30.07 "Hg10 mi
11:53 AM89 °FSunny.8 mph52%30.08 "Hg10 mi
10:53 AM86 °FPartly sunny.5 mph57%30.08 "Hg10 mi
9:53 AM82 °FPassing clouds.No wind67%30.09 "Hg10 mi
8:53 AM76 °FSunny.3 mph82%30.10 "Hg10 mi
7:53 AM72 °FSunny.No wind91%30.10 "Hg10 mi
6:53 AM68 °FClear.No wind93%30.09 "Hg9 mi
5:53 AM68 °FClear.5 mph96%30.09 "Hg9 mi
Weather by CustomWeather, © 2016

See weather overviewHow to use our weather pages